This demonstration page uses our WeatherBlox Daily Observations layout. Learn more.

Left ArrowRight Arrow

34.02893, -84.19858

Hourly Observations for July 4, 2022

Temp ( °F °C ) Dew Point ( °F °C ) Humidity (%) Winds ( mph kmh ) Pressure ( in mb ) Visibility ( mi km ) Precip ( " mm )
12:53 am 00:53 Clear 74 23.3 72 22.2 94 94 S 3 6 30.05 1018 9 14 0.00 0.00
1:53 am 01:53 Clear 75 23.9 72 22.2 90 90 Calm 30.05 1018 10 16 0.00 0.00
2:53 am 02:53 Partly Cloudy with Mist and Fog 74 23.3 73 22.8 97 97 Calm 30.04 1017 5 8 0.00 0.00
3:01 am 03:01 Mostly Cloudy with Mist and Fog 74 23.3 73 22.8 97 97 Calm 30.06 1018 5 8 0.00 0.00
3:53 am 03:53 Cloudy 75 23.9 73 22.8 94 94 Calm 30.04 1017 7 11 0.00 0.00
4:53 am 04:53 Cloudy 74 23.3 72 22.2 94 94 Calm 30.04 1017 7 11 0.00 0.00
5:19 am 05:19 Mostly Clear with Mist and Fog 73 22.8 72 22.2 96 96 Calm 30.06 1018 6 10 0.00 0.00
5:53 am 05:53 Clear with Mist and Fog 73 22.8 72 22.2 96 96 Calm 30.06 1018 4 6 0.00 0.00
6:53 am 06:53 Sunny with Mist and Fog 72 22.2 71 21.7 97 97 Calm 30.07 1018 3 5 0.00 0.00
7:53 am 07:53 Sunny with Mist and Fog 76 24.4 73 22.8 91 91 Calm 30.09 1019 6 10 0.00 0.00
8:19 am 08:19 Mostly Cloudy 77 25 72 22.2 85 85 Calm 30.12 1020 7 11 0.00 0.00
8:28 am 08:28 Mostly Cloudy 77 25 72 22.2 85 85 Calm 30.12 1020 7 11 0.00 0.00
8:53 am 08:53 Cloudy 77 25 71 21.7 82 82 Calm 30.11 1020 8 13 0.00 0.00
9:37 am 09:37 Cloudy 81 27.2 72 22.2 74 74 VRB 5 7 30.12 1020 10 16 0.00 0.00
9:53 am 09:53 Mostly Cloudy 80 26.7 71 21.7 74 74 VRB 3 6 30.12 1020 10 16 0.00 0.00
10:53 am 10:53 Partly Cloudy 85 29.4 72 22.2 65 65 Calm 30.12 1020 10 16 0.00 0.00
11:53 am 11:53 Mostly Cloudy 89 31.7 71 21.7 55 55 VRB 5 7 30.11 1020 10 16 0.00 0.00
12:53 pm 12:53 Partly Cloudy 87 30.6 70 21.1 57 57 VRB 3 6 30.09 1019 10 16 0.00 0.00
1:53 pm 13:53 Cloudy 88 31.1 69 20.6 54 54 Calm 30.08 1019 10 16 0.00 0.00
2:53 pm 14:53 Partly Cloudy 90 32.2 70 21.1 52 52 Calm 30.04 1017 10 16 0.00 0.00
3:53 pm 15:53 Cloudy 89 31.7 70 21.1 53 53 Calm 30.03 1017 10 16 0.00 0.00
4:53 pm 16:53 Sunny 93 33.9 71 21.7 49 49 S 7 11 30.01 1016 10 16 0.00 0.00
5:53 pm 17:53 Mostly Cloudy 91 32.8 70 21.1 50 50 VRB 3 6 30.00 1016 10 16 0.00 0.00
6:53 pm 18:53 Sunny 90 32.2 70 21.1 52 52 Calm 30.00 1016 10 16 0.00 0.00
7:53 pm 19:53 Mostly Sunny 90 32.2 71 21.7 54 54 VRB 5 7 30.00 1016 10 16 0.00 0.00
8:19 pm 20:19 Mostly Cloudy with Nearby Thunderstorms 88 31.1 71 21.7 57 57 S 3 6 30.02 1016 10 16 0.00 0.00
8:53 pm 20:53 Cloudy with Thunderstorms 84 28.9 71 21.7 65 65 W 10 17 30.03 1017 10 16 0.00 0.00
9:22 pm 21:22 Cloudy with Strong Thunderstorms 76 24.4 73 22.8 91 91 SW 23 37 30.10 1019 2 3 0.14 3.56
9:26 pm 21:26 Cloudy with Strong Thunderstorms 75 23.9 73 22.8 94 94 WSW 23 37 30.10 1019 1 1 0.35 8.89
9:35 pm 21:35 Mostly Clear with Strong Thunderstorms 73 22.8 72 22.2 96 96 W 15 24 30.09 1019 N/A 0.86 21.84
9:44 pm 21:44 Mostly Clear with Strong Thunderstorms 73 22.8 70 21.1 90 90 WSW 12 19 30.08 1019 1 1 1.11 28.19
9:51 pm 21:51 Mostly Clear with Thunderstorms 73 23 70 21 89 89 NW 13 20 30.07 1018 2 3 1.13 28.70
9:53 pm 21:53 Mostly Clear with Thunderstorms 73 22.8 69 20.6 87 87 NNW 13 20 30.06 1018 3 5 1.13 28.70
10:01 pm 22:01 Cloudy with Nearby Thunderstorms 73 22.8 71 21.7 94 94 VRB 5 7 30.08 1019 10 16 0.00 0.00
10:22 pm 22:22 Cloudy with Thunderstorms 73 22.8 70 21.1 90 90 NW 8 13 30.09 1019 10 16 0.01 0.25
10:37 pm 22:37 Cloudy with Nearby Thunderstorms 74 23.3 71 21.7 91 91 NNW 6 9 30.09 1019 10 16 0.01 0.25
10:51 pm 22:51 Cloudy with Light Rain 73 23 72 22 94 94 NNW 7 11 30.10 1019 10 16 0.01 0.25
10:53 pm 22:53 Mostly Cloudy with Light Rain 74 23.3 72 22.2 94 94 NNW 7 11 30.08 1019 10 16 0.01 0.25
11:53 pm 23:53 Clear with Mist and Fog 73 22.8 72 22.2 96 96 Calm 30.08 1019 5 8 0.00 0.00

Powered by AerisWeather